Minatitlan, Mexico

4:18 PM CDT on May 23, 2018 (GMT -0500)
Minatitlan

Weather History for MMMT - October, 2012

Change the Weather History Date:

Monday, October 22, 2012

  Actual Average Record
Temperature  
Mean Temperature 72 °F -  
Max Temperature 84 °F 81 °F 91 °F (1996)
Min Temperature 59 °F 69 °F 35 °F (2003)
Cooling Degree Days 6    
Growing Degree Days 22 (Base 50)    
Moisture  
Dew Point 70 °F    
Average Humidity 83    
Maximum Humidity 100    
Minimum Humidity 56    
Precipitation  
Precipitation 2.05 in - - ()
Sea Level Pressure  
Sea Level Pressure 29.91 in    
Wind  
Wind Speed 3 mph ()    
Max Wind Speed 10 mph    
Max Gust Speed -    
Visibility 6.4 miles    
Events Fog , Rain    
Averages and records for this station are not official NWS values.
T = Trace of Precipitation, MM = Missing Value Source: Averaged Metar Reports

Daily Weather History Graph

Daily Weather History Graph

Search for Another Location

Airport or City:

Astronomy

Oct. 22, 2012 Rise Set
Actual Time 7:14 AM CDT 6:51 PM CDT
Civil Twilight 6:51 AM CDT 7:13 PM CDT
Nautical Twilight 6:26 AM CDT 7:38 PM CDT
Astronomical Twilight 6:00 AM CDT 8:04 PM CDT
Moon 2:06 PM CDT (10/22) 12:59 AM CDT (10/22)
Length of Visible Light 12h 21m
Length of Day
11h 36m
First Quarter, 56% of the Moon is Illuminated
Oct 22
First Quarter
Oct 29
Full
Nov 6
Last Quarter
Nov 13
New
Nov 20
First Quarter

Hourly Weather History & Observations

Time (CDT) Temp. Heat Index Dew Point Humidity Pressure Visibility Wind Dir Wind Speed Gust Speed Precip Events Conditions
1:00 AM 65 °F - 64 °F 96% 29.97 in - ESE 2.2 mph - -  
4:00 AM 61 °F - 61 °F 100% 29.95 in - Calm Calm - -  
5:45 AM 73.4 °F - 73.4 °F 100% 29.81 in 3.0 mi South 10.4 mph - N/A Rain Rain
6:50 AM 75.2 °F - 73.4 °F 94% 30.03 in 6.0 mi South 6.9 mph - N/A   Overcast
7:00 AM 59 °F - 59 °F 99% 29.98 in - Calm Calm - -  
7:45 AM 75.2 °F - 73.4 °F 94% 29.84 in 5.0 mi Calm Calm - N/A   Drizzle
8:50 AM 75.2 °F - 73.4 °F 94% 29.85 in 5.0 mi Calm Calm - N/A   Overcast
9:54 AM 75.2 °F - 73.4 °F 94% 29.87 in 0.5 mi South 9.2 mph - N/A Fog , Rain Rain
10:00 AM 72 °F - 60 °F 58% 29.92 in - ENE 2.2 mph - -  
10:02 AM 75.2 °F - 73.4 °F 94% 29.87 in 0.5 mi South 9.2 mph - N/A Fog , Rain Rain
10:52 AM 75.2 °F - 73.4 °F 94% 30.11 in 6.0 mi South 9.2 mph - N/A   Haze
10:54 AM 75.2 °F - 73.4 °F 94% 29.87 in 0.5 mi South 9.2 mph - N/A Fog , Rain Rain
11:45 AM 78.8 °F - 73.4 °F 83% 29.88 in 8.0 mi South 9.2 mph - N/A   Mostly Cloudy
12:45 PM 82.4 °F 88.2 °F 73.4 °F 74% 30.08 in 8.0 mi Calm Calm - N/A   Mostly Cloudy
1:00 PM 76 °F - 63 °F 56% 29.87 in - SE 4.5 mph - -  
1:50 PM 82.4 °F 88.2 °F 73.4 °F 74% 29.81 in 10.0 mi Calm Calm - N/A   Mostly Cloudy
2:45 PM 82.4 °F 88.2 °F 73.4 °F 74% 29.78 in 10.0 mi Calm Calm - N/A   Mostly Cloudy
3:54 PM 82.4 °F 88.2 °F 73.4 °F 74% 29.99 in 10.0 mi Calm Calm - N/A   Scattered Clouds
4:00 PM 75 °F - 63 °F 58%  in - SE 4.5 mph - -  
4:50 PM 84.2 °F 90.9 °F 73.4 °F 70% 29.77 in 10.0 mi Calm Calm - N/A   Clear
5:45 PM 82.4 °F 87.2 °F 71.6 °F 70% 29.77 in 10.0 mi Calm Calm - N/A   Clear
6:45 PM 80.6 °F 84.6 °F 71.6 °F 74% 30.01 in 10.0 mi Calm Calm - N/A   Clear
7:00 PM 68 °F - 66 °F 90% 29.89 in - East 2.2 mph - -